Time,TemperatureF,DewpointF,PressureIn,WindDirection,WindDirectionDegrees,WindSpeedMPH,WindSpeedGustMPH,Humidity,HourlyPrecipIn,Conditions,Clouds,dailyrainin,SolarRadiationWatts/m^2,SoftwareType,DateUTC
2013-04-19 00:01:00,45.0,37.0,-100.00,SSW,198,0.0,2.0,73,-99.99,,,0.00,0.000000,,2013-04-19 07:01:00,
2013-04-19 00:12:00,45.0,37.0,-100.00,SSW,198,0.0,2.0,73,-99.99,,,0.00,0.000000,,2013-04-19 07:12:00,
2013-04-19 01:42:00,47.0,36.0,-100.00,SSW,210,2.0,7.0,66,-99.99,,,0.00,0.000000,,2013-04-19 08:42:00,
2013-04-19 01:52:00,47.0,36.0,-100.00,SSW,210,2.0,7.0,66,-99.99,,,0.00,0.000000,,2013-04-19 08:52:00,
2013-04-19 02:01:00,47.0,36.0,-100.00,SSW,210,2.0,7.0,66,-99.99,,,0.00,0.000000,,2013-04-19 09:01:00,
2013-04-19 02:11:00,47.0,36.0,-100.00,SSW,210,2.0,7.0,66,-99.99,,,0.00,0.000000,,2013-04-19 09:11:00,
2013-04-19 02:42:00,47.0,37.0,-100.00,SSW,206,4.0,7.0,66,-99.99,,,0.00,0.000000,,2013-04-19 09:42:00,
2013-04-19 02:52:00,47.0,37.0,-100.00,SSW,206,4.0,7.0,66,-99.99,,,0.00,0.000000,,2013-04-19 09:52:00,
2013-04-19 03:02:00,47.0,37.0,-100.00,SSW,206,4.0,7.0,66,-99.99,,,0.00,0.000000,,2013-04-19 10:02:00,
2013-04-19 03:13:00,47.0,37.0,-100.00,SSW,206,4.0,7.0,66,-99.99,,,0.00,0.000000,,2013-04-19 10:13:00,
2013-04-19 03:42:00,47.0,37.0,-100.00,SSW,208,4.0,9.0,68,-99.99,,,0.00,0.000000,,2013-04-19 10:42:00,
2013-04-19 03:52:00,47.0,37.0,-100.00,SSW,208,4.0,9.0,68,-99.99,,,0.00,0.000000,,2013-04-19 10:52:00,
2013-04-19 04:02:00,47.0,37.0,-100.00,SSW,208,4.0,9.0,68,-99.99,,,0.00,0.000000,,2013-04-19 11:02:00,
2013-04-19 04:11:00,47.0,37.0,-100.00,SSW,208,4.0,9.0,68,-99.99,,,0.00,0.000000,,2013-04-19 11:11:00,
2013-04-19 04:42:00,47.0,37.0,-100.00,SSW,203,2.0,5.0,69,-99.99,,,0.00,0.000000,,2013-04-19 11:42:00,
2013-04-19 04:52:00,47.0,37.0,-100.00,SSW,203,2.0,5.0,69,-99.99,,,0.00,0.000000,,2013-04-19 11:52:00,
2013-04-19 05:02:00,47.0,37.0,-100.00,SSW,203,2.0,5.0,69,-99.99,,,0.00,0.000000,,2013-04-19 12:02:00,
2013-04-19 05:12:00,47.0,37.0,-100.00,SSW,203,2.0,5.0,69,-99.99,,,0.00,0.000000,,2013-04-19 12:12:00,
2013-04-19 05:42:00,47.0,37.0,-100.00,South,189,4.0,11.0,69,-99.99,,,0.00,0.000000,,2013-04-19 12:42:00,
2013-04-19 05:52:00,47.0,37.0,-100.00,South,189,4.0,11.0,69,-99.99,,,0.00,0.000000,,2013-04-19 12:52:00,
2013-04-19 06:01:00,47.0,37.0,-100.00,South,189,4.0,11.0,69,-99.99,,,0.00,0.000000,,2013-04-19 13:01:00,
2013-04-19 06:11:00,47.0,37.0,-100.00,South,189,4.0,11.0,69,-99.99,,,0.00,0.000000,,2013-04-19 13:11:00,
2013-04-19 06:42:00,46.0,38.0,-100.00,SW,216,6.0,15.0,72,-99.99,,,0.00,0.810000,,2013-04-19 13:42:00,
2013-04-19 06:52:00,46.0,38.0,-100.00,SW,216,6.0,15.0,72,-99.99,,,0.00,0.810000,,2013-04-19 13:52:00,
2013-04-19 07:01:00,46.0,38.0,-100.00,SW,216,6.0,15.0,72,-99.99,,,0.00,0.810000,,2013-04-19 14:01:00,
2013-04-19 07:11:00,46.0,38.0,-100.00,SW,216,6.0,15.0,72,-99.99,,,0.00,0.810000,,2013-04-19 14:11:00,
2013-04-19 07:42:00,46.0,38.0,-100.00,SSW,209,7.0,16.0,73,-99.99,,,0.00,60.900002,,2013-04-19 14:42:00,
2013-04-19 07:52:00,46.0,38.0,-100.00,SSW,209,7.0,16.0,73,-99.99,,,0.00,60.900002,,2013-04-19 14:52:00,
2013-04-19 08:01:00,46.0,38.0,-100.00,SSW,209,7.0,16.0,73,-99.99,,,0.00,60.900002,,2013-04-19 15:01:00,
2013-04-19 08:11:00,46.0,38.0,-100.00,SSW,209,7.0,16.0,73,-99.99,,,0.00,60.900002,,2013-04-19 15:11:00,
2013-04-19 08:43:00,47.0,38.0,-100.00,SSW,205,6.0,17.0,71,-99.99,,,0.00,120.639999,,2013-04-19 15:43:00,
2013-04-19 08:52:00,47.0,38.0,-100.00,SSW,205,6.0,17.0,71,-99.99,,,0.00,120.639999,,2013-04-19 15:52:00,
2013-04-19 09:03:00,47.0,38.0,-100.00,SSW,205,6.0,17.0,71,-99.99,,,0.00,120.639999,,2013-04-19 16:03:00,
2013-04-19 09:12:00,47.0,38.0,-100.00,SSW,205,6.0,17.0,71,-99.99,,,0.00,120.639999,,2013-04-19 16:12:00,
2013-04-19 09:42:00,47.0,39.0,-100.00,SSW,209,5.0,11.0,73,-99.99,,,0.00,116.449997,,2013-04-19 16:42:00,
2013-04-19 09:52:00,47.0,39.0,-100.00,SSW,209,5.0,11.0,73,-99.99,,,0.00,116.449997,,2013-04-19 16:52:00,
2013-04-19 10:02:00,47.0,39.0,-100.00,SSW,209,5.0,11.0,73,-99.99,,,0.00,116.449997,,2013-04-19 17:02:00,
2013-04-19 10:11:00,47.0,39.0,-100.00,SSW,209,5.0,11.0,73,-99.99,,,0.00,116.449997,,2013-04-19 17:11:00,
2013-04-19 10:42:00,49.0,38.0,-100.00,South,190,6.0,15.0,65,-99.99,,,0.00,626.890015,,2013-04-19 17:42:00,
2013-04-19 10:52:00,49.0,38.0,-100.00,South,190,6.0,15.0,65,-99.99,,,0.00,626.890015,,2013-04-19 17:52:00,
2013-04-19 11:01:00,49.0,38.0,-100.00,South,190,6.0,15.0,65,-99.99,,,0.00,626.890015,,2013-04-19 18:01:00,
2013-04-19 11:13:00,49.0,38.0,-100.00,South,190,6.0,15.0,65,-99.99,,,0.00,626.890015,,2013-04-19 18:13:00,
2013-04-19 11:42:00,52.0,37.0,-100.00,SSW,204,5.0,12.0,56,-99.99,,,0.00,416.299988,,2013-04-19 18:42:00,
2013-04-19 11:52:00,52.0,37.0,-100.00,SSW,204,5.0,12.0,56,-99.99,,,0.00,416.299988,,2013-04-19 18:52:00,
2013-04-19 12:01:00,52.0,37.0,-100.00,SSW,204,5.0,12.0,56,-99.99,,,0.00,416.299988,,2013-04-19 19:01:00,
2013-04-19 12:11:00,52.0,37.0,-100.00,SSW,204,5.0,12.0,56,-99.99,,,0.00,416.299988,,2013-04-19 19:11:00,
2013-04-19 12:41:00,53.0,36.0,-100.00,SW,236,4.0,14.0,51,-99.99,,,0.00,599.349976,,2013-04-19 19:41:00,
2013-04-19 12:52:00,53.0,36.0,-100.00,SW,236,4.0,14.0,51,-99.99,,,0.00,599.349976,,2013-04-19 19:52:00,
2013-04-19 13:01:00,53.0,36.0,-100.00,SW,236,4.0,14.0,51,-99.99,,,0.00,599.349976,,2013-04-19 20:01:00,
2013-04-19 13:11:00,53.0,36.0,-100.00,SW,236,4.0,14.0,51,-99.99,,,0.00,599.349976,,2013-04-19 20:11:00,
2013-04-19 13:41:00,56.0,36.0,-100.00,SW,230,6.0,18.0,46,-99.99,,,0.00,1009.950012,,2013-04-19 20:41:00,
2013-04-19 13:52:00,56.0,36.0,-100.00,SW,230,6.0,18.0,46,-99.99,,,0.00,1009.950012,,2013-04-19 20:52:00,
2013-04-19 14:01:00,56.0,36.0,-100.00,SW,230,6.0,18.0,46,-99.99,,,0.00,1009.950012,,2013-04-19 21:01:00,
2013-04-19 14:11:00,56.0,36.0,-100.00,SW,230,6.0,18.0,46,-99.99,,,0.00,1009.950012,,2013-04-19 21:11:00,
2013-04-19 14:42:00,56.0,36.0,-100.00,WSW,247,5.0,18.0,46,-99.99,,,0.00,653.270020,,2013-04-19 21:42:00,
2013-04-19 14:52:00,56.0,36.0,-100.00,WSW,247,5.0,18.0,46,-99.99,,,0.00,653.270020,,2013-04-19 21:52:00,
2013-04-19 15:02:00,56.0,36.0,-100.00,WSW,247,5.0,18.0,46,-99.99,,,0.00,653.270020,,2013-04-19 22:02:00,
2013-04-19 15:12:00,56.0,36.0,-100.00,WSW,247,5.0,18.0,46,-99.99,,,0.00,653.270020,,2013-04-19 22:12:00,
2013-04-19 15:42:00,58.0,35.0,-100.00,WSW,254,3.0,15.0,41,-99.99,,,0.00,806.219971,,2013-04-19 22:42:00,
2013-04-19 15:52:00,58.0,35.0,-100.00,WSW,254,3.0,15.0,41,-99.99,,,0.00,806.219971,,2013-04-19 22:52:00,
2013-04-19 16:02:00,58.0,35.0,-100.00,WSW,254,3.0,15.0,41,-99.99,,,0.00,806.219971,,2013-04-19 23:02:00,
2013-04-19 16:11:00,58.0,35.0,-100.00,WSW,254,3.0,15.0,41,-99.99,,,0.00,806.219971,,2013-04-19 23:11:00,
2013-04-19 16:42:00,57.0,33.0,-100.00,West,260,3.0,15.0,39,-99.99,,,0.00,696.510010,,2013-04-19 23:42:00,
2013-04-19 16:52:00,57.0,33.0,-100.00,West,260,3.0,15.0,39,-99.99,,,0.00,696.510010,,2013-04-19 23:52:00,
2013-04-19 17:01:00,57.0,33.0,-100.00,West,260,3.0,15.0,39,-99.99,,,0.00,696.510010,,2013-04-20 00:01:00,
2013-04-19 17:11:00,57.0,33.0,-100.00,West,260,3.0,15.0,39,-99.99,,,0.00,696.510010,,2013-04-20 00:11:00,
2013-04-19 18:42:00,52.0,33.0,-100.00,WNW,289,3.0,13.0,47,-99.99,,,0.00,73.099998,,2013-04-20 01:42:00,
2013-04-19 18:52:00,52.0,33.0,-100.00,WNW,289,3.0,13.0,47,-99.99,,,0.00,73.099998,,2013-04-20 01:52:00,
2013-04-19 19:01:00,52.0,33.0,-100.00,WNW,289,3.0,13.0,47,-99.99,,,0.00,73.099998,,2013-04-20 02:01:00,
2013-04-19 19:11:00,52.0,33.0,-100.00,WNW,289,3.0,13.0,47,-99.99,,,0.00,73.099998,,2013-04-20 02:11:00,
2013-04-19 19:42:00,51.0,30.0,-100.00,WNW,295,2.0,8.0,44,-99.99,,,0.00,34.279999,,2013-04-20 02:42:00,
2013-04-19 19:52:00,51.0,30.0,-100.00,WNW,295,2.0,8.0,44,-99.99,,,0.00,34.279999,,2013-04-20 02:52:00,
2013-04-19 20:01:00,51.0,30.0,-100.00,WNW,295,2.0,8.0,44,-99.99,,,0.00,34.279999,,2013-04-20 03:01:00,
2013-04-19 20:11:00,51.0,30.0,-100.00,WNW,295,2.0,8.0,44,-99.99,,,0.00,34.279999,,2013-04-20 03:11:00,
2013-04-19 20:43:00,46.0,35.0,-100.00,NNW,328,3.0,5.0,65,-99.99,,,0.00,0.700000,,2013-04-20 03:43:00,
2013-04-19 20:53:00,46.0,35.0,-100.00,NNW,328,3.0,5.0,65,-99.99,,,0.00,0.700000,,2013-04-20 03:53:00,
2013-04-19 21:03:00,46.0,35.0,-100.00,NNW,328,3.0,5.0,65,-99.99,,,0.00,0.700000,,2013-04-20 04:03:00,
2013-04-19 21:12:00,46.0,35.0,-100.00,NNW,328,3.0,5.0,65,-99.99,,,0.00,0.700000,,2013-04-20 04:12:00,
2013-04-19 21:42:00,44.0,35.0,-100.00,NW,316,2.0,5.0,72,-99.99,,,0.00,0.000000,,2013-04-20 04:42:00,
2013-04-19 21:52:00,44.0,35.0,-100.00,NW,316,2.0,5.0,72,-99.99,,,0.00,0.000000,,2013-04-20 04:52:00,
2013-04-19 22:02:00,44.0,35.0,-100.00,NW,316,2.0,5.0,72,-99.99,,,0.00,0.000000,,2013-04-20 05:02:00,
2013-04-19 22:12:00,44.0,35.0,-100.00,NW,316,2.0,5.0,72,-99.99,,,0.00,0.000000,,2013-04-20 05:12:00,
2013-04-19 22:42:00,42.0,34.0,-100.00,WNW,303,0.0,1.0,75,-99.99,,,0.00,0.000000,,2013-04-20 05:42:00,
2013-04-19 22:52:00,42.0,34.0,-100.00,WNW,303,0.0,1.0,75,-99.99,,,0.00,0.000000,,2013-04-20 05:52:00,
2013-04-19 23:01:00,42.0,34.0,-100.00,WNW,303,0.0,1.0,75,-99.99,,,0.00,0.000000,,2013-04-20 06:01:00,
2013-04-19 23:12:00,42.0,34.0,-100.00,WNW,303,0.0,1.0,75,-99.99,,,0.00,0.000000,,2013-04-20 06:12:00,
2013-04-19 23:42:00,40.0,34.0,-100.00,South,183,2.0,4.0,79,-99.99,,,0.00,0.000000,,2013-04-20 06:42:00,
2013-04-19 23:52:00,40.0,34.0,-100.00,South,183,2.0,4.0,79,-99.99,,,0.00,0.000000,,2013-04-20 06:52:00,